World > North America > United States > Utah

Corinne, Utah Regional Weather

Lat: 41.55N, Lon: 112.12W
Wx Zone: UTZ002Web Search

Ads allow us to feed your daily addiction for the world's greatest weather information. We're determined to offer quality sponsors, in the least annoying way possible.

Feedback


°F Click to change Corinne hourly weather to Imperial units.Click to change Corinne hourly weather to Metric units. °C
Corinne Weather Map
UTC Time: 4/15/2021, 11:04
Your Time:

Corinne, UT Regional Weather

Expires:202104151100;;584533
ASUS45 KSLC 151010
RWRUT 

UTAH REGIONAL WEATHER ROUNDUP
NATIONAL WEATHER SERVICE SALT LAKE CITY UT
400 AM MDT THU APR 15 2021


UTZ001>011-023>025-151100-

NORTHERN UTAH
  
CITY           SKY/WX    TMP DP  RH WIND       PRES   REMARKS
BRIGHAM CITY   CLOUDY    40  23  50 SE16      29.92S WCI  31          
HILL AFB       FLURRIES  36  25  64 E18G24    29.90S WCI  25          
LOGAN          CLOUDY    37  21  52 SE10      29.92F WCI  30          
OGDEN          CLOUDY    40  29  64 CALM      29.90S                  
SALT LAKE CITY CLOUDY    40  34  79 W6        29.90S                  
TOOELE VALLEY  DRIZZLE   37  37 100 SE7       29.91F WCI  32          
WENDOVER       CLOUDY    39  28  64 W13       29.92F WCI  31          
HEBER CITY     FLURRIES  32  27  80 CALM      29.89S                  
WEST JORDAN    CLOUDY    38  38 100 NW7       29.90F WCI  32          

$$


SKY/WX - Weather  TMP - Temperature  DP - Dew Point  RH - Relative Humidity
WIND - Wind Direction/Speed PRES - Barometric Pressure VSB - Visibility
WCI - Wind Chill Index E13G22 Wind - East Wind 13 mph/Gusts of 22 mph